Time,TemperatureF,DewpointF,PressureIn,WindDirection,WindDirectionDegrees,WindSpeedMPH,WindSpeedGustMPH,Humidity,HourlyPrecipIn,Conditions,Clouds,dailyrainin,SoftwareType,DateUTC
2013-05-11 00:03:00,75.6,42.0,29.93,ESE,117,0.0,1.0,30,0.00,,,0.00,Wunderground v.1.15,2013-05-11 07:03:00,
2013-05-11 00:08:00,75.6,41.1,29.93,ESE,115,2.0,2.0,29,0.00,,,0.00,Wunderground v.1.15,2013-05-11 07:08:00,
2013-05-11 00:13:00,75.8,40.4,29.94,ESE,120,0.0,1.0,28,0.00,,,0.00,Wunderground v.1.15,2013-05-11 07:13:00,
2013-05-11 00:18:00,75.9,40.4,29.94,East,98,3.0,3.0,28,0.00,,,0.00,Wunderground v.1.15,2013-05-11 07:18:00,
2013-05-11 00:23:00,75.9,39.5,29.93,ESE,118,0.0,2.0,27,0.00,,,0.00,Wunderground v.1.15,2013-05-11 07:23:00,
2013-05-11 00:28:00,75.9,39.5,29.93,ESE,116,1.0,2.0,27,0.00,,,0.00,Wunderground v.1.15,2013-05-11 07:28:00,
2013-05-11 00:34:00,75.9,38.5,29.93,ESE,115,1.0,1.0,26,0.00,,,0.00,Wunderground v.1.15,2013-05-11 07:34:00,
2013-05-11 00:39:00,75.9,38.5,29.93,ESE,111,1.0,1.0,26,0.00,,,0.00,Wunderground v.1.15,2013-05-11 07:39:00,
2013-05-11 00:44:00,76.1,38.7,29.93,ESE,116,1.0,1.0,26,0.00,,,0.00,Wunderground v.1.15,2013-05-11 07:44:00,
2013-05-11 00:49:00,76.4,39.0,29.93,ESE,120,0.0,1.0,26,0.00,,,0.00,Wunderground v.1.15,2013-05-11 07:49:00,
2013-05-11 00:54:00,76.8,39.3,29.93,ESE,111,1.0,2.0,26,0.00,,,0.00,Wunderground v.1.15,2013-05-11 07:54:00,
2013-05-11 00:59:00,77.3,39.7,29.94,ESE,111,1.0,2.0,26,0.00,,,0.00,Wunderground v.1.15,2013-05-11 07:59:00,
2013-05-11 01:04:00,77.6,39.0,29.94,ESE,122,1.0,2.0,25,0.00,,,0.00,Wunderground v.1.15,2013-05-11 08:04:00,
2013-05-11 01:09:00,77.6,39.0,29.94,East,101,1.0,2.0,25,0.00,,,0.00,Wunderground v.1.15,2013-05-11 08:09:00,
2013-05-11 01:15:00,77.2,38.6,29.94,ESE,108,2.0,2.0,25,0.00,,,0.00,Wunderground v.1.15,2013-05-11 08:15:00,
2013-05-11 01:21:00,77.0,39.5,29.94,ESE,121,0.0,1.0,26,0.00,,,0.00,Wunderground v.1.15,2013-05-11 08:21:00,
2013-05-11 01:26:00,76.9,39.4,29.94,ESE,110,0.0,1.0,26,0.00,,,0.00,Wunderground v.1.15,2013-05-11 08:26:00,
2013-05-11 01:31:00,76.9,39.4,29.93,SE,124,0.0,1.0,26,0.00,,,0.00,Wunderground v.1.15,2013-05-11 08:31:00,
2013-05-11 01:36:00,76.9,39.4,29.94,ESE,117,1.0,1.0,26,0.00,,,0.00,Wunderground v.1.15,2013-05-11 08:36:00,
2013-05-11 01:41:00,77.5,39.9,29.94,ESE,117,0.0,1.0,26,0.00,,,0.00,Wunderground v.1.15,2013-05-11 08:41:00,
2013-05-11 01:46:00,77.6,40.0,29.94,ESE,120,1.0,2.0,26,0.00,,,0.00,Wunderground v.1.15,2013-05-11 08:46:00,
2013-05-11 01:52:00,77.7,40.1,29.93,ESE,116,1.0,1.0,26,0.00,,,0.00,Wunderground v.1.15,2013-05-11 08:52:00,
2013-05-11 01:57:00,77.5,39.9,29.93,ESE,123,1.0,1.0,26,0.00,,,0.00,Wunderground v.1.15,2013-05-11 08:57:00,
2013-05-11 02:02:00,77.3,39.7,29.93,ESE,111,2.0,2.0,26,0.00,,,0.00,Wunderground v.1.15,2013-05-11 09:02:00,
2013-05-11 02:07:00,77.0,39.5,29.93,ESE,122,1.0,2.0,26,0.00,,,0.00,Wunderground v.1.15,2013-05-11 09:07:00,
2013-05-11 02:12:00,76.5,40.0,29.93,ESE,116,0.0,1.0,27,0.00,,,0.00,Wunderground v.1.15,2013-05-11 09:12:00,
2013-05-11 02:17:00,75.8,39.4,29.93,ESE,114,0.0,1.0,27,0.00,,,0.00,Wunderground v.1.15,2013-05-11 09:17:00,
2013-05-11 02:22:00,75.4,40.0,29.93,ESE,115,0.0,0.0,28,0.00,,,0.00,Wunderground v.1.15,2013-05-11 09:22:00,
2013-05-11 02:27:00,75.5,40.1,29.93,ESE,113,0.0,1.0,28,0.00,,,0.00,Wunderground v.1.15,2013-05-11 09:27:00,
2013-05-11 02:32:00,75.5,40.1,29.93,East,97,2.0,2.0,28,0.00,,,0.00,Wunderground v.1.15,2013-05-11 09:32:00,
2013-05-11 02:37:00,75.7,40.3,29.93,ESE,111,0.0,2.0,28,0.00,,,0.00,Wunderground v.1.15,2013-05-11 09:37:00,
2013-05-11 02:42:00,75.6,39.2,29.93,East,91,0.0,1.0,27,0.00,,,0.00,Wunderground v.1.15,2013-05-11 09:42:00,
2013-05-11 02:47:00,75.2,38.9,29.94,NNE,28,0.0,4.0,27,0.00,,,0.00,Wunderground v.1.15,2013-05-11 09:47:00,
2013-05-11 02:52:00,72.9,39.6,29.94,ESE,109,0.0,2.0,30,0.00,,,0.00,Wunderground v.1.15,2013-05-11 09:52:00,
2013-05-11 02:57:00,70.8,39.5,29.94,North,356,2.0,4.0,32,0.00,,,0.00,Wunderground v.1.15,2013-05-11 09:57:00,
2013-05-11 03:02:00,68.0,40.7,29.94,North,360,3.0,5.0,37,0.00,,,0.00,Wunderground v.1.15,2013-05-11 10:02:00,
2013-05-11 03:07:00,66.9,41.8,29.94,North,8,0.0,5.0,40,0.00,,,0.00,Wunderground v.1.15,2013-05-11 10:07:00,
2013-05-11 03:12:00,66.7,42.9,29.94,ENE,58,0.0,1.0,42,0.00,,,0.00,Wunderground v.1.15,2013-05-11 10:12:00,
2013-05-11 03:17:00,67.3,42.8,29.94,ENE,75,0.0,2.0,41,0.00,,,0.00,Wunderground v.1.15,2013-05-11 10:17:00,
2013-05-11 03:22:00,68.3,41.7,29.93,NNW,332,1.0,1.0,38,0.00,,,0.00,Wunderground v.1.15,2013-05-11 10:22:00,
2013-05-11 03:27:00,67.3,40.8,29.94,NW,321,2.0,4.0,38,0.00,,,0.00,Wunderground v.1.15,2013-05-11 10:27:00,
2013-05-11 03:32:00,66.4,40.7,29.94,North,354,0.0,2.0,39,0.00,,,0.00,Wunderground v.1.15,2013-05-11 10:32:00,
2013-05-11 03:37:00,66.0,41.0,29.93,North,354,0.0,2.0,40,0.00,,,0.00,Wunderground v.1.15,2013-05-11 10:37:00,
2013-05-11 03:42:00,66.6,41.5,29.93,ENE,68,0.0,2.0,40,0.00,,,0.00,Wunderground v.1.15,2013-05-11 10:42:00,
2013-05-11 03:47:00,67.6,41.7,29.93,East,79,1.0,2.0,39,0.00,,,0.00,Wunderground v.1.15,2013-05-11 10:47:00,
2013-05-11 03:52:00,68.9,40.8,29.93,ENE,69,1.0,2.0,36,0.00,,,0.00,Wunderground v.1.15,2013-05-11 10:52:00,
2013-05-11 03:57:00,70.0,41.1,29.94,ENE,63,0.0,4.0,35,0.00,,,0.00,Wunderground v.1.15,2013-05-11 10:57:00,
2013-05-11 04:02:00,70.9,40.3,29.94,NE,34,1.0,1.0,33,0.00,,,0.00,Wunderground v.1.15,2013-05-11 11:02:00,
2013-05-11 04:07:00,71.3,40.7,29.94,ENE,77,0.0,2.0,33,0.00,,,0.00,Wunderground v.1.15,2013-05-11 11:07:00,
2013-05-11 04:12:00,71.4,41.6,29.94,ENE,63,0.0,1.0,34,0.00,,,0.00,Wunderground v.1.15,2013-05-11 11:12:00,
2013-05-11 04:17:00,71.2,41.4,29.94,North,1,8.0,8.0,34,0.00,,,0.00,Wunderground v.1.15,2013-05-11 11:17:00,
2013-05-11 04:22:00,69.5,42.1,29.94,NNE,15,4.0,9.0,37,0.00,,,0.00,Wunderground v.1.15,2013-05-11 11:22:00,
2013-05-11 04:27:00,68.2,42.3,29.94,NNW,333,0.0,9.0,39,0.00,,,0.00,Wunderground v.1.15,2013-05-11 11:27:00,
2013-05-11 04:32:00,67.7,42.5,29.94,North,6,0.0,2.0,40,0.00,,,0.00,Wunderground v.1.15,2013-05-11 11:32:00,
2013-05-11 04:37:00,67.4,42.2,29.94,North,6,0.0,2.0,40,0.00,,,0.00,Wunderground v.1.15,2013-05-11 11:37:00,
2013-05-11 04:42:00,67.0,42.5,29.94,North,356,3.0,3.0,41,0.00,,,0.00,Wunderground v.1.15,2013-05-11 11:42:00,
2013-05-11 04:47:00,66.4,42.6,29.94,NNW,339,0.0,4.0,42,0.00,,,0.00,Wunderground v.1.15,2013-05-11 11:47:00,
2013-05-11 04:52:00,66.0,43.5,29.94,North,356,4.0,5.0,44,0.00,,,0.00,Wunderground v.1.15,2013-05-11 11:52:00,
2013-05-11 04:57:00,65.7,43.8,29.94,North,358,0.0,5.0,45,0.00,,,0.00,Wunderground v.1.15,2013-05-11 11:57:00,
2013-05-11 05:02:00,65.1,43.8,29.95,NNE,18,1.0,4.0,46,0.00,,,0.00,Wunderground v.1.15,2013-05-11 12:02:00,
2013-05-11 05:07:00,64.5,43.8,29.95,NNW,344,2.0,5.0,47,0.00,,,0.00,Wunderground v.1.15,2013-05-11 12:07:00,
2013-05-11 05:12:00,64.1,44.0,29.95,North,11,0.0,3.0,48,0.00,,,0.00,Wunderground v.1.15,2013-05-11 12:12:00,
2013-05-11 05:17:00,63.7,44.7,29.95,North,6,0.0,3.0,50,0.00,,,0.00,Wunderground v.1.15,2013-05-11 12:17:00,
2013-05-11 05:22:00,63.7,44.2,29.95,NNE,29,0.0,3.0,49,0.00,,,0.00,Wunderground v.1.15,2013-05-11 12:22:00,
2013-05-11 05:27:00,64.2,43.5,29.95,WNW,285,0.0,3.0,47,0.00,,,0.00,Wunderground v.1.15,2013-05-11 12:27:00,
2013-05-11 05:32:00,64.9,43.0,29.95,ENE,77,0.0,1.0,45,0.00,,,0.00,Wunderground v.1.15,2013-05-11 12:32:00,
2013-05-11 05:37:00,65.3,42.8,29.95,ENE,68,0.0,1.0,44,0.00,,,0.00,Wunderground v.1.15,2013-05-11 12:37:00,
2013-05-11 05:42:00,65.5,42.4,29.96,NNE,23,0.0,1.0,43,0.00,,,0.00,Wunderground v.1.15,2013-05-11 12:42:00,
2013-05-11 05:47:00,65.7,42.6,29.96,ENE,72,0.0,2.0,43,0.00,,,0.00,Wunderground v.1.15,2013-05-11 12:47:00,
2013-05-11 05:52:00,65.7,42.6,29.96,ESE,110,0.0,2.0,43,0.00,,,0.00,Wunderground v.1.15,2013-05-11 12:52:00,
2013-05-11 05:57:00,66.3,42.5,29.96,ENE,72,2.0,5.0,42,0.00,,,0.00,Wunderground v.1.15,2013-05-11 12:57:00,
2013-05-11 06:02:00,67.7,41.2,29.96,NE,56,5.0,5.0,38,0.00,,,0.00,Wunderground v.1.15,2013-05-11 13:02:00,
2013-05-11 06:07:00,69.8,40.2,29.96,NW,326,9.0,9.0,34,0.00,,,0.00,Wunderground v.1.15,2013-05-11 13:07:00,
2013-05-11 06:12:00,68.4,41.8,29.97,NW,324,1.0,6.0,38,0.00,,,0.00,Wunderground v.1.15,2013-05-11 13:12:00,
2013-05-11 06:17:00,67.9,42.0,29.97,NNE,18,0.0,6.0,39,0.00,,,0.00,Wunderground v.1.15,2013-05-11 13:17:00,
2013-05-11 06:22:00,68.2,42.3,29.97,North,358,0.0,1.0,39,0.00,,,0.00,Wunderground v.1.15,2013-05-11 13:22:00,
2013-05-11 06:27:00,69.1,41.7,29.97,NNW,341,0.0,1.0,37,0.00,,,0.00,Wunderground v.1.15,2013-05-11 13:27:00,
2013-05-11 06:32:00,70.6,40.9,29.97,NNE,18,1.0,1.0,34,0.00,,,0.00,Wunderground v.1.15,2013-05-11 13:32:00,
2013-05-11 06:38:00,71.8,40.3,29.97,North,352,1.0,3.0,32,0.00,,,0.00,Wunderground v.1.15,2013-05-11 13:38:00,
2013-05-11 06:43:00,72.7,40.3,29.97,NNW,332,0.0,1.0,31,0.00,,,0.00,Wunderground v.1.15,2013-05-11 13:43:00,
2013-05-11 06:48:00,73.4,40.9,29.97,NNE,25,4.0,5.0,31,0.00,,,0.00,Wunderground v.1.15,2013-05-11 13:48:00,
2013-05-11 06:53:00,73.3,41.6,29.97,East,98,2.0,6.0,32,0.00,,,0.00,Wunderground v.1.15,2013-05-11 13:53:00,
2013-05-11 06:58:00,73.6,41.1,29.97,North,1,2.0,6.0,31,0.00,,,0.00,Wunderground v.1.15,2013-05-11 13:58:00,
2013-05-11 07:03:00,74.5,41.0,29.97,NNW,341,1.0,9.0,30,0.00,,,0.00,Wunderground v.1.15,2013-05-11 14:03:00,
2013-05-11 07:08:00,75.2,40.7,29.97,NNE,26,4.0,9.0,29,0.00,,,0.00,Wunderground v.1.15,2013-05-11 14:08:00,
2013-05-11 07:13:00,75.8,42.1,29.97,NNW,340,3.0,8.0,30,0.00,,,0.00,Wunderground v.1.15,2013-05-11 14:13:00,
2013-05-11 07:18:00,76.1,42.4,29.97,NE,53,3.0,8.0,30,0.00,,,0.00,Wunderground v.1.15,2013-05-11 14:18:00,
2013-05-11 07:23:00,76.6,42.0,29.98,North,349,1.0,9.0,29,0.00,,,0.00,Wunderground v.1.15,2013-05-11 14:23:00,
2013-05-11 07:28:00,77.2,41.6,29.98,North,351,4.0,9.0,28,0.00,,,0.00,Wunderground v.1.15,2013-05-11 14:28:00,
2013-05-11 07:33:00,77.7,41.0,29.98,NE,54,6.0,10.0,27,0.00,,,0.00,Wunderground v.1.15,2013-05-11 14:33:00,
2013-05-11 07:38:00,78.0,42.2,29.98,North,359,8.0,10.0,28,0.00,,,0.00,Wunderground v.1.15,2013-05-11 14:38:00,
2013-05-11 07:43:00,78.2,42.4,29.98,NNE,23,2.0,10.0,28,0.00,,,0.00,Wunderground v.1.15,2013-05-11 14:43:00,
2013-05-11 07:48:00,78.5,41.7,29.98,ENE,58,2.0,10.0,27,0.00,,,0.00,Wunderground v.1.15,2013-05-11 14:48:00,
2013-05-11 07:53:00,79.0,42.2,29.99,NNW,328,3.0,9.0,27,0.00,,,0.00,Wunderground v.1.15,2013-05-11 14:53:00,
2013-05-11 07:58:00,79.3,42.4,29.99,NE,41,6.0,10.0,27,0.00,,,0.00,Wunderground v.1.15,2013-05-11 14:58:00,
2013-05-11 08:03:00,79.6,42.7,29.99,NW,308,3.0,8.0,27,0.00,,,0.00,Wunderground v.1.15,2013-05-11 15:03:00,
2013-05-11 08:08:00,80.1,43.1,29.99,North,358,1.0,11.0,27,0.00,,,0.00,Wunderground v.1.15,2013-05-11 15:08:00,
2013-05-11 08:13:00,80.5,43.4,29.99,NNE,13,3.0,11.0,27,0.00,,,0.00,Wunderground v.1.15,2013-05-11 15:13:00,
2013-05-11 08:18:00,81.2,43.0,29.99,NE,52,5.0,11.0,26,0.00,,,0.00,Wunderground v.1.15,2013-05-11 15:18:00,
2013-05-11 08:23:00,81.7,43.5,29.99,NNE,32,2.0,13.0,26,0.00,,,0.00,Wunderground v.1.15,2013-05-11 15:23:00,
2013-05-11 08:28:00,82.2,41.8,29.99,NNW,346,3.0,13.0,24,0.00,,,0.00,Wunderground v.1.15,2013-05-11 15:28:00,
2013-05-11 08:33:00,82.9,41.3,29.99,North,353,3.0,14.0,23,0.00,,,0.00,Wunderground v.1.15,2013-05-11 15:33:00,
2013-05-11 08:39:00,83.5,41.8,29.99,NE,34,2.0,14.0,23,0.00,,,0.00,Wunderground v.1.15,2013-05-11 15:39:00,
2013-05-11 08:44:00,84.1,41.1,29.99,East,82,4.0,8.0,22,0.00,,,0.00,Wunderground v.1.15,2013-05-11 15:44:00,
2013-05-11 08:49:00,84.7,41.6,29.99,ENE,69,9.0,9.0,22,0.00,,,0.00,Wunderground v.1.15,2013-05-11 15:49:00,
2013-05-11 08:54:00,85.0,41.9,29.99,NE,44,6.0,11.0,22,0.00,,,0.00,Wunderground v.1.15,2013-05-11 15:54:00,
2013-05-11 08:59:00,85.4,41.0,29.99,ESE,107,7.0,11.0,21,0.00,,,0.00,Wunderground v.1.15,2013-05-11 15:59:00,
2013-05-11 09:04:00,85.9,41.4,29.99,SSE,156,1.0,7.0,21,0.00,,,0.00,Wunderground v.1.15,2013-05-11 16:04:00,
2013-05-11 09:09:00,86.3,40.5,29.99,NE,43,7.0,14.0,20,0.00,,,0.00,Wunderground v.1.15,2013-05-11 16:09:00,
2013-05-11 09:14:00,86.5,41.9,29.99,ENE,65,4.0,13.0,21,0.00,,,0.00,Wunderground v.1.15,2013-05-11 16:14:00,
2013-05-11 09:19:00,86.9,41.0,29.99,North,354,2.0,13.0,20,0.00,,,0.00,Wunderground v.1.15,2013-05-11 16:19:00,
2013-05-11 09:24:00,87.3,41.3,29.99,North,356,3.0,13.0,20,0.00,,,0.00,Wunderground v.1.15,2013-05-11 16:24:00,
2013-05-11 09:29:00,87.6,42.8,29.99,North,354,4.0,13.0,21,0.00,,,0.00,Wunderground v.1.15,2013-05-11 16:29:00,
2013-05-11 09:34:00,88.2,40.7,29.99,NNW,340,8.0,15.0,19,0.00,,,0.00,Wunderground v.1.15,2013-05-11 16:34:00,
2013-05-11 09:39:00,88.6,41.1,29.99,North,349,8.0,15.0,19,0.00,,,0.00,Wunderground v.1.15,2013-05-11 16:39:00,
2013-05-11 09:44:00,89.0,40.0,29.99,South,172,2.0,13.0,18,0.00,,,0.00,Wunderground v.1.15,2013-05-11 16:44:00,
2013-05-11 09:49:00,89.3,41.6,29.99,North,4,3.0,13.0,19,0.00,,,0.00,Wunderground v.1.15,2013-05-11 16:49:00,
2013-05-11 09:54:00,90.0,42.2,29.99,ESE,115,1.0,7.0,19,0.00,,,0.00,Wunderground v.1.15,2013-05-11 16:54:00,
2013-05-11 09:59:00,90.2,42.4,30.00,NNW,329,8.0,13.0,19,0.00,,,0.00,Wunderground v.1.15,2013-05-11 16:59:00,
2013-05-11 10:04:00,89.7,42.0,29.99,NW,316,13.0,17.0,19,0.00,,,0.00,Wunderground v.1.15,2013-05-11 17:04:00,
2013-05-11 10:09:00,89.3,41.6,29.99,NNW,335,10.0,17.0,19,0.00,,,0.00,Wunderground v.1.15,2013-05-11 17:09:00,
2013-05-11 10:14:00,89.8,43.4,29.99,NNE,12,11.0,17.0,20,0.00,,,0.00,Wunderground v.1.15,2013-05-11 17:14:00,
2013-05-11 10:19:00,90.3,41.0,29.99,NE,39,6.0,18.0,18,0.00,,,0.00,Wunderground v.1.15,2013-05-11 17:19:00,
2013-05-11 10:24:00,91.1,41.7,29.99,NNW,346,12.0,13.0,18,0.00,,,0.00,Wunderground v.1.15,2013-05-11 17:24:00,
2013-05-11 10:29:00,91.5,40.5,30.00,North,354,2.0,20.0,17,0.00,,,0.00,Wunderground v.1.15,2013-05-11 17:29:00,
2013-05-11 10:34:00,91.8,40.8,30.00,North,355,4.0,13.0,17,0.00,,,0.00,Wunderground v.1.15,2013-05-11 17:34:00,
2013-05-11 10:39:00,91.4,41.9,29.99,NW,310,15.0,17.0,18,0.00,,,0.00,Wunderground v.1.15,2013-05-11 17:39:00,
2013-05-11 10:44:00,91.1,40.2,29.99,NW,325,13.0,19.0,17,0.00,,,0.00,Wunderground v.1.15,2013-05-11 17:44:00,
2013-05-11 10:49:00,91.4,43.3,29.99,North,4,13.0,19.0,19,0.00,,,0.00,Wunderground v.1.15,2013-05-11 17:49:00,
2013-05-11 10:54:00,91.8,42.3,29.99,NW,307,11.0,17.0,18,0.00,,,0.00,Wunderground v.1.15,2013-05-11 17:54:00,
2013-05-11 10:59:00,93.0,41.7,29.99,NNE,23,5.0,17.0,17,0.00,,,0.00,Wunderground v.1.15,2013-05-11 17:59:00,
2013-05-11 11:04:00,93.1,41.8,29.99,North,5,17.0,21.0,17,0.00,,,0.00,Wunderground v.1.15,2013-05-11 18:04:00,
2013-05-11 11:09:00,92.5,41.3,29.99,NNW,335,15.0,22.0,17,0.00,,,0.00,Wunderground v.1.15,2013-05-11 18:09:00,
2013-05-11 11:14:00,92.7,39.9,29.99,NNW,330,5.0,15.0,16,0.00,,,0.00,Wunderground v.1.15,2013-05-11 18:14:00,
2013-05-11 11:19:00,93.1,40.3,29.99,NNW,330,12.0,15.0,16,0.00,,,0.00,Wunderground v.1.15,2013-05-11 18:19:00,
2013-05-11 11:24:00,94.0,37.5,29.99,NE,56,4.0,18.0,14,0.00,,,0.00,Wunderground v.1.15,2013-05-11 18:24:00,
2013-05-11 11:29:00,94.5,37.9,29.99,West,259,3.0,18.0,14,0.00,,,0.00,Wunderground v.1.15,2013-05-11 18:29:00,
2013-05-11 11:34:00,95.1,38.4,29.99,SSW,200,2.0,8.0,14,0.00,,,0.00,Wunderground v.1.15,2013-05-11 18:34:00,
2013-05-11 11:40:00,95.4,40.4,29.99,North,5,10.0,14.0,15,0.00,,,0.00,Wunderground v.1.15,2013-05-11 18:40:00,
2013-05-11 11:45:00,94.8,38.2,29.98,North,351,3.0,15.0,14,0.00,,,0.00,Wunderground v.1.15,2013-05-11 18:45:00,
2013-05-11 11:50:00,95.4,38.6,29.98,NNE,29,10.0,15.0,14,0.00,,,0.00,Wunderground v.1.15,2013-05-11 18:50:00,
2013-05-11 11:55:00,95.5,36.8,29.98,NNW,338,11.0,19.0,13,0.00,,,0.00,Wunderground v.1.15,2013-05-11 18:55:00,
2013-05-11 12:00:00,95.3,38.6,29.98,ENE,66,10.0,10.0,14,0.00,,,0.00,Wunderground v.1.15,2013-05-11 19:00:00,
2013-05-11 12:05:00,94.8,36.3,29.98,NNW,346,4.0,13.0,13,0.00,,,0.00,Wunderground v.1.15,2013-05-11 19:05:00,
2013-05-11 12:10:00,94.9,38.3,29.98,East,82,2.0,6.0,14,0.00,,,0.00,Wunderground v.1.15,2013-05-11 19:10:00,
2013-05-11 12:15:00,95.0,38.3,29.98,ENE,58,7.0,14.0,14,0.00,,,0.00,Wunderground v.1.15,2013-05-11 19:15:00,
2013-05-11 12:20:00,95.2,34.6,29.98,ESE,110,4.0,5.0,12,0.00,,,0.00,Wunderground v.1.15,2013-05-11 19:20:00,
2013-05-11 12:25:00,95.6,34.9,29.98,East,93,6.0,8.0,12,0.00,,,0.00,Wunderground v.1.15,2013-05-11 19:25:00,
2013-05-11 12:30:00,96.1,33.1,29.98,East,82,1.0,4.0,11,0.00,,,0.00,Wunderground v.1.15,2013-05-11 19:30:00,
2013-05-11 12:35:00,97.6,36.4,29.98,NW,326,3.0,8.0,12,0.00,,,0.00,Wunderground v.1.15,2013-05-11 19:35:00,
2013-05-11 12:40:00,98.0,34.5,29.97,East,88,2.0,2.0,11,0.00,,,0.00,Wunderground v.1.15,2013-05-11 19:40:00,
2013-05-11 12:45:00,98.2,34.7,29.97,ENE,71,3.0,16.0,11,0.00,,,0.00,Wunderground v.1.15,2013-05-11 19:45:00,
2013-05-11 12:50:00,98.1,34.6,29.97,NNW,336,9.0,16.0,11,0.00,,,0.00,Wunderground v.1.15,2013-05-11 19:50:00,
2013-05-11 12:55:00,97.1,33.9,29.97,NNE,14,6.0,20.0,11,0.00,,,0.00,Wunderground v.1.15,2013-05-11 19:55:00,
2013-05-11 13:00:00,96.6,35.7,29.97,NNW,332,15.0,15.0,12,0.00,,,0.00,Wunderground v.1.15,2013-05-11 20:00:00,
2013-05-11 13:05:00,96.7,33.6,29.97,NNW,333,13.0,19.0,11,0.00,,,0.00,Wunderground v.1.15,2013-05-11 20:05:00,
2013-05-11 13:10:00,96.5,35.6,29.96,NNW,342,12.0,20.0,12,0.00,,,0.00,Wunderground v.1.15,2013-05-11 20:10:00,
2013-05-11 13:15:00,96.7,33.6,29.96,NNW,343,12.0,20.0,11,0.00,,,0.00,Wunderground v.1.15,2013-05-11 20:15:00,
2013-05-11 13:20:00,97.9,34.5,29.96,NW,314,7.0,7.0,11,0.00,,,0.00,Wunderground v.1.15,2013-05-11 20:20:00,
2013-05-11 13:25:00,97.8,34.4,29.96,NNW,340,12.0,12.0,11,0.00,,,0.00,Wunderground v.1.15,2013-05-11 20:25:00,
2013-05-11 13:30:00,97.5,31.8,29.96,NW,314,10.0,14.0,10,0.00,,,0.00,Wunderground v.1.15,2013-05-11 20:30:00,
2013-05-11 13:35:00,96.8,33.6,29.96,WNW,297,3.0,14.0,11,0.00,,,0.00,Wunderground v.1.15,2013-05-11 20:35:00,
2013-05-11 13:40:00,97.3,36.2,29.96,SW,226,0.0,7.0,12,0.00,,,0.00,Wunderground v.1.15,2013-05-11 20:40:00,
2013-05-11 13:45:00,97.9,32.1,29.96,NNE,14,0.0,7.0,10,0.00,,,0.00,Wunderground v.1.15,2013-05-11 20:45:00,
2013-05-11 13:50:00,98.2,34.7,29.96,East,98,4.0,7.0,11,0.00,,,0.00,Wunderground v.1.15,2013-05-11 20:50:00,
2013-05-11 13:55:00,98.7,35.1,29.95,East,84,0.0,8.0,11,0.00,,,0.00,Wunderground v.1.15,2013-05-11 20:55:00,
2013-05-11 14:00:00,99.1,35.4,29.95,ENE,75,7.0,7.0,11,0.00,,,0.00,Wunderground v.1.15,2013-05-11 21:00:00,
2013-05-11 14:05:00,100.4,34.0,29.95,NE,56,2.0,7.0,10,0.00,,,0.00,Wunderground v.1.15,2013-05-11 21:05:00,
2013-05-11 14:10:00,100.4,34.0,29.95,East,88,3.0,4.0,10,0.00,,,0.00,Wunderground v.1.15,2013-05-11 21:10:00,
2013-05-11 14:15:00,99.1,33.0,29.95,East,84,5.0,11.0,10,0.00,,,0.00,Wunderground v.1.15,2013-05-11 21:15:00,
2013-05-11 14:20:00,98.6,32.6,29.95,ESE,112,2.0,6.0,10,0.00,,,0.00,Wunderground v.1.15,2013-05-11 21:20:00,
2013-05-11 14:25:00,98.6,32.6,29.94,East,82,2.0,6.0,10,0.00,,,0.00,Wunderground v.1.15,2013-05-11 21:25:00,
2013-05-11 14:30:00,99.3,37.7,29.93,ESE,110,0.0,3.0,12,0.00,,,0.00,Wunderground v.1.15,2013-05-11 21:30:00,
2013-05-11 14:35:00,100.1,33.7,29.94,East,86,5.0,8.0,10,0.00,,,0.00,Wunderground v.1.15,2013-05-11 21:35:00,
2013-05-11 14:40:00,99.7,30.8,29.93,ESE,105,6.0,10.0,9,0.00,,,0.00,Wunderground v.1.15,2013-05-11 21:40:00,
2013-05-11 14:45:00,99.1,33.0,29.93,NNW,331,6.0,10.0,10,0.00,,,0.00,Wunderground v.1.15,2013-05-11 21:45:00,
2013-05-11 14:50:00,98.7,32.7,29.92,WNW,301,0.0,4.0,10,0.00,,,0.00,Wunderground v.1.15,2013-05-11 21:50:00,
2013-05-11 14:55:00,99.8,33.5,29.92,ESE,113,9.0,9.0,10,0.00,,,0.00,Wunderground v.1.15,2013-05-11 21:55:00,
2013-05-11 15:00:00,99.9,33.6,29.92,ESE,120,9.0,9.0,10,0.00,,,0.00,Wunderground v.1.15,2013-05-11 22:00:00,
2013-05-11 15:05:00,100.1,31.1,29.92,East,98,2.0,11.0,9,0.00,,,0.00,Wunderground v.1.15,2013-05-11 22:05:00,
2013-05-11 15:10:00,100.4,31.4,29.92,ENE,68,5.0,10.0,9,0.00,,,0.00,Wunderground v.1.15,2013-05-11 22:10:00,
2013-05-11 15:15:00,99.8,30.9,29.92,East,97,0.0,10.0,9,0.00,,,0.00,Wunderground v.1.15,2013-05-11 22:15:00,
2013-05-11 15:20:00,99.9,31.0,29.92,ESE,104,0.0,3.0,9,0.00,,,0.00,Wunderground v.1.15,2013-05-11 22:20:00,
2013-05-11 15:25:00,100.4,31.4,29.91,ENE,72,7.0,7.0,9,0.00,,,0.00,Wunderground v.1.15,2013-05-11 22:25:00,
2013-05-11 15:30:00,99.9,31.0,29.91,ENE,77,0.0,3.0,9,0.00,,,0.00,Wunderground v.1.15,2013-05-11 22:30:00,
2013-05-11 15:35:00,100.1,31.1,29.91,East,90,2.0,8.0,9,0.00,,,0.00,Wunderground v.1.15,2013-05-11 22:35:00,
2013-05-11 15:40:00,101.0,31.8,29.91,NNE,25,6.0,9.0,9,0.00,,,0.00,Wunderground v.1.15,2013-05-11 22:40:00,
2013-05-11 15:46:00,100.4,31.4,29.91,SW,236,1.0,9.0,9,0.00,,,0.00,Wunderground v.1.15,2013-05-11 22:46:00,
2013-05-11 15:51:00,100.2,31.2,29.90,North,8,5.0,13.0,9,0.00,,,0.00,Wunderground v.1.15,2013-05-11 22:51:00,
2013-05-11 15:56:00,100.0,28.2,29.90,ENE,77,3.0,13.0,8,0.00,,,0.00,Wunderground v.1.15,2013-05-11 22:56:00,
2013-05-11 16:01:00,100.4,28.5,29.90,NE,50,4.0,6.0,8,0.00,,,0.00,Wunderground v.1.15,2013-05-11 23:01:00,
2013-05-11 16:06:00,100.3,28.4,29.90,SE,135,4.0,9.0,8,0.00,,,0.00,Wunderground v.1.15,2013-05-11 23:06:00,
2013-05-11 16:11:00,100.4,28.5,29.90,ENE,75,5.0,6.0,8,0.00,,,0.00,Wunderground v.1.15,2013-05-11 23:11:00,
2013-05-11 16:16:00,100.5,31.4,29.90,ENE,66,5.0,7.0,9,0.00,,,0.00,Wunderground v.1.15,2013-05-11 23:16:00,
2013-05-11 16:21:00,100.3,31.3,29.90,East,101,3.0,7.0,9,0.00,,,0.00,Wunderground v.1.15,2013-05-11 23:21:00,
2013-05-11 16:26:00,100.0,31.1,29.90,East,100,0.0,7.0,9,0.00,,,0.00,Wunderground v.1.15,2013-05-11 23:26:00,
2013-05-11 16:31:00,100.1,28.2,29.90,ESE,108,2.0,4.0,8,0.00,,,0.00,Wunderground v.1.15,2013-05-11 23:31:00,
2013-05-11 16:36:00,100.8,31.6,29.90,East,82,1.0,6.0,9,0.00,,,0.00,Wunderground v.1.15,2013-05-11 23:36:00,
2013-05-11 16:41:00,100.5,31.4,29.90,East,94,3.0,7.0,9,0.00,,,0.00,Wunderground v.1.15,2013-05-11 23:41:00,
2013-05-11 16:46:00,100.1,31.1,29.89,ESE,102,2.0,10.0,9,0.00,,,0.00,Wunderground v.1.15,2013-05-11 23:46:00,
2013-05-11 16:51:00,100.5,28.5,29.89,ESE,103,1.0,4.0,8,0.00,,,0.00,Wunderground v.1.15,2013-05-11 23:51:00,
2013-05-11 16:56:00,101.7,32.3,29.89,ESE,113,2.0,4.0,9,0.00,,,0.00,Wunderground v.1.15,2013-05-11 23:56:00,
2013-05-11 17:01:00,100.9,28.8,29.89,ESE,117,1.0,2.0,8,0.00,,,0.00,Wunderground v.1.15,2013-05-12 00:01:00,
2013-05-11 17:06:00,100.3,28.4,29.89,ESE,107,1.0,11.0,8,0.00,,,0.00,Wunderground v.1.15,2013-05-12 00:06:00,
2013-05-11 17:11:00,100.5,28.5,29.89,ESE,116,4.0,7.0,8,0.00,,,0.00,Wunderground v.1.15,2013-05-12 00:11:00,
2013-05-11 17:16:00,100.5,28.5,29.89,ENE,73,2.0,8.0,8,0.00,,,0.00,Wunderground v.1.15,2013-05-12 00:16:00,
2013-05-11 17:21:00,101.3,29.1,29.89,ESE,107,0.0,2.0,8,0.00,,,0.00,Wunderground v.1.15,2013-05-12 00:21:00,
2013-05-11 17:26:00,102.2,29.8,29.89,NW,319,1.0,2.0,8,0.00,,,0.00,Wunderground v.1.15,2013-05-12 00:26:00,
2013-05-11 17:31:00,101.7,29.4,29.88,NE,36,0.0,1.0,8,0.00,,,0.00,Wunderground v.1.15,2013-05-12 00:31:00,
2013-05-11 17:36:00,101.4,29.2,29.89,NNW,342,3.0,7.0,8,0.00,,,0.00,Wunderground v.1.15,2013-05-12 00:36:00,
2013-05-11 17:41:00,100.9,31.7,29.88,NNE,25,7.0,9.0,9,0.00,,,0.00,Wunderground v.1.15,2013-05-12 00:41:00,
2013-05-11 17:46:00,99.9,28.1,29.88,NNW,329,9.0,14.0,8,0.00,,,0.00,Wunderground v.1.15,2013-05-12 00:46:00,
2013-05-11 17:51:00,99.2,30.5,29.88,NW,319,4.0,6.0,9,0.00,,,0.00,Wunderground v.1.15,2013-05-12 00:51:00,
2013-05-11 17:56:00,99.5,30.7,29.88,East,93,0.0,6.0,9,0.00,,,0.00,Wunderground v.1.15,2013-05-12 00:56:00,
2013-05-11 18:01:00,100.1,31.1,29.88,NNE,22,0.0,3.0,9,0.00,,,0.00,Wunderground v.1.15,2013-05-12 01:01:00,
2013-05-11 18:06:00,99.6,30.8,29.88,North,1,5.0,6.0,9,0.00,,,0.00,Wunderground v.1.15,2013-05-12 01:06:00,
2013-05-11 18:11:00,99.1,33.0,29.88,NW,307,6.0,6.0,10,0.00,,,0.00,Wunderground v.1.15,2013-05-12 01:11:00,
2013-05-11 18:16:00,98.9,30.2,29.88,WNW,294,3.0,7.0,9,0.00,,,0.00,Wunderground v.1.15,2013-05-12 01:16:00,
2013-05-11 18:21:00,98.9,30.2,29.88,West,280,3.0,3.0,9,0.00,,,0.00,Wunderground v.1.15,2013-05-12 01:21:00,
2013-05-11 18:26:00,98.7,32.7,29.88,East,89,4.0,7.0,10,0.00,,,0.00,Wunderground v.1.15,2013-05-12 01:26:00,
2013-05-11 18:31:00,98.3,34.8,29.88,NNW,338,2.0,6.0,11,0.00,,,0.00,Wunderground v.1.15,2013-05-12 01:31:00,
2013-05-11 18:36:00,97.8,32.0,29.88,NNW,337,7.0,8.0,10,0.00,,,0.00,Wunderground v.1.15,2013-05-12 01:36:00,
2013-05-11 18:41:00,97.6,31.9,29.88,NW,307,3.0,6.0,10,0.00,,,0.00,Wunderground v.1.15,2013-05-12 01:41:00,
2013-05-11 18:46:00,97.5,34.2,29.88,WNW,299,1.0,6.0,11,0.00,,,0.00,Wunderground v.1.15,2013-05-12 01:46:00,
2013-05-11 18:51:00,97.3,34.0,29.88,NNW,335,3.0,3.0,11,0.00,,,0.00,Wunderground v.1.15,2013-05-12 01:51:00,
2013-05-11 18:56:00,96.8,35.8,29.88,NNW,339,3.0,5.0,12,0.00,,,0.00,Wunderground v.1.15,2013-05-12 01:56:00,
2013-05-11 19:01:00,96.1,37.3,29.89,North,4,2.0,3.0,13,0.00,,,0.00,Wunderground v.1.15,2013-05-12 02:01:00,
2013-05-11 19:06:00,95.5,36.8,29.89,NNW,333,0.0,3.0,13,0.00,,,0.00,Wunderground v.1.15,2013-05-12 02:06:00,
2013-05-11 19:11:00,95.0,38.3,29.89,NW,325,1.0,2.0,14,0.00,,,0.00,Wunderground v.1.15,2013-05-12 02:11:00,
2013-05-11 19:16:00,94.4,37.9,29.89,WNW,295,0.0,2.0,14,0.00,,,0.00,Wunderground v.1.15,2013-05-12 02:16:00,
2013-05-11 19:21:00,93.4,40.5,29.89,West,270,0.0,2.0,16,0.00,,,0.00,Wunderground v.1.15,2013-05-12 02:21:00,
2013-05-11 19:26:00,91.6,39.1,29.89,WNW,290,1.0,2.0,16,0.00,,,0.00,Wunderground v.1.15,2013-05-12 02:26:00,
2013-05-11 19:31:00,90.3,39.6,29.89,West,267,0.0,1.0,17,0.00,,,0.00,Wunderground v.1.15,2013-05-12 02:31:00,
2013-05-11 19:36:00,89.6,37.5,29.89,WNW,302,2.0,2.0,16,0.00,,,0.00,Wunderground v.1.15,2013-05-12 02:36:00,
2013-05-11 19:41:00,88.9,38.4,29.89,WNW,287,1.0,2.0,17,0.00,,,0.00,Wunderground v.1.15,2013-05-12 02:41:00,
2013-05-11 19:46:00,88.5,42.3,29.90,WSW,252,0.0,3.0,20,0.00,,,0.00,Wunderground v.1.15,2013-05-12 02:46:00,
2013-05-11 19:52:00,87.6,42.8,29.90,WSW,253,0.0,1.0,21,0.00,,,0.00,Wunderground v.1.15,2013-05-12 02:52:00,
2013-05-11 19:57:00,87.0,44.7,29.90,West,270,0.0,1.0,23,0.00,,,0.00,Wunderground v.1.15,2013-05-12 02:57:00,
2013-05-11 20:01:00,86.5,44.3,29.90,West,270,0.0,0.0,23,0.00,,,0.00,Wunderground v.1.15,2013-05-12 03:01:00,
2013-05-11 20:06:00,86.0,45.0,29.90,West,264,0.0,0.0,24,0.00,,,0.00,Wunderground v.1.15,2013-05-12 03:06:00,
2013-05-11 20:11:00,85.8,42.6,29.90,WSW,240,0.0,0.0,22,0.00,,,0.00,Wunderground v.1.15,2013-05-12 03:11:00,
2013-05-11 20:16:00,85.9,42.6,29.90,SSW,205,0.0,1.0,22,0.00,,,0.00,Wunderground v.1.15,2013-05-12 03:16:00,
2013-05-11 20:21:00,85.7,41.3,29.90,ESE,115,0.0,0.0,21,0.00,,,0.00,Wunderground v.1.15,2013-05-12 03:21:00,
2013-05-11 20:26:00,85.6,41.2,29.90,SW,219,0.0,1.0,21,0.00,,,0.00,Wunderground v.1.15,2013-05-12 03:26:00,
2013-05-11 20:31:00,85.7,41.3,29.91,SSW,194,0.0,0.0,21,0.00,,,0.00,Wunderground v.1.15,2013-05-12 03:31:00,
2013-05-11 20:37:00,85.5,41.1,29.91,SSW,194,0.0,0.0,21,0.00,,,0.00,Wunderground v.1.15,2013-05-12 03:37:00,
2013-05-11 20:42:00,85.1,39.5,29.91,SSW,193,0.0,0.0,20,0.00,,,0.00,Wunderground v.1.15,2013-05-12 03:42:00,
2013-05-11 20:47:00,85.2,39.6,29.91,South,191,0.0,0.0,20,0.00,,,0.00,Wunderground v.1.15,2013-05-12 03:47:00,
2013-05-11 20:52:00,85.1,39.5,29.91,ESE,119,0.0,0.0,20,0.00,,,0.00,Wunderground v.1.15,2013-05-12 03:52:00,
2013-05-11 20:57:00,84.9,38.0,29.92,ESE,119,0.0,0.0,19,0.00,,,0.00,Wunderground v.1.15,2013-05-12 03:57:00,
2013-05-11 21:01:00,84.7,37.9,29.92,ESE,121,0.0,0.0,19,0.00,,,0.00,Wunderground v.1.15,2013-05-12 04:01:00,
2013-05-11 21:06:00,84.6,37.8,29.92,ESE,118,1.0,1.0,19,0.00,,,0.00,Wunderground v.1.15,2013-05-12 04:06:00,
2013-05-11 21:11:00,84.5,37.7,29.92,ESE,110,1.0,2.0,19,0.00,,,0.00,Wunderground v.1.15,2013-05-12 04:11:00,
2013-05-11 21:16:00,84.8,37.9,29.92,ESE,114,1.0,3.0,19,0.00,,,0.00,Wunderground v.1.15,2013-05-12 04:16:00,
2013-05-11 21:22:00,85.0,36.7,29.93,ESE,122,2.0,2.0,18,0.00,,,0.00,Wunderground v.1.15,2013-05-12 04:22:00,
2013-05-11 21:27:00,85.0,36.7,29.93,ESE,117,1.0,2.0,18,0.00,,,0.00,Wunderground v.1.15,2013-05-12 04:27:00,
2013-05-11 21:32:00,85.0,36.7,29.93,ESE,117,0.0,1.0,18,0.00,,,0.00,Wunderground v.1.15,2013-05-12 04:32:00,
2013-05-11 21:37:00,85.2,36.9,29.93,ESE,120,1.0,3.0,18,0.00,,,0.00,Wunderground v.1.15,2013-05-12 04:37:00,
2013-05-11 21:42:00,85.7,35.9,29.93,ESE,110,2.0,3.0,17,0.00,,,0.00,Wunderground v.1.15,2013-05-12 04:42:00,
2013-05-11 21:47:00,85.9,36.0,29.93,ESE,115,2.0,3.0,17,0.00,,,0.00,Wunderground v.1.15,2013-05-12 04:47:00,
2013-05-11 21:52:00,85.9,34.5,29.94,ESE,110,2.0,3.0,16,0.00,,,0.00,Wunderground v.1.15,2013-05-12 04:52:00,
2013-05-11 21:57:00,85.9,34.5,29.94,ESE,115,1.0,3.0,16,0.00,,,0.00,Wunderground v.1.15,2013-05-12 04:57:00,
2013-05-11 22:02:00,85.3,34.0,29.94,SE,128,1.0,2.0,16,0.00,,,0.00,Wunderground v.1.15,2013-05-12 05:02:00,
2013-05-11 22:07:00,84.7,35.0,29.94,ESE,112,2.0,2.0,17,0.00,,,0.00,Wunderground v.1.15,2013-05-12 05:07:00,
2013-05-11 22:12:00,84.5,34.9,29.94,ESE,108,1.0,2.0,17,0.00,,,0.00,Wunderground v.1.15,2013-05-12 05:12:00,
2013-05-11 22:17:00,84.2,34.6,29.94,ESE,117,2.0,3.0,17,0.00,,,0.00,Wunderground v.1.15,2013-05-12 05:17:00,
2013-05-11 22:22:00,83.9,34.4,29.94,ESE,104,4.0,4.0,17,0.00,,,0.00,Wunderground v.1.15,2013-05-12 05:22:00,
2013-05-11 22:27:00,83.7,34.2,29.94,ESE,120,1.0,4.0,17,0.00,,,0.00,Wunderground v.1.15,2013-05-12 05:27:00,
2013-05-11 22:32:00,83.7,34.2,29.94,SE,124,1.0,2.0,17,0.00,,,0.00,Wunderground v.1.15,2013-05-12 05:32:00,
2013-05-11 22:37:00,83.8,34.3,29.94,ESE,120,2.0,2.0,17,0.00,,,0.00,Wunderground v.1.15,2013-05-12 05:37:00,
2013-05-11 22:42:00,84.2,34.6,29.94,ESE,115,1.0,1.0,17,0.00,,,0.00,Wunderground v.1.15,2013-05-12 05:42:00,
2013-05-11 22:47:00,83.9,34.4,29.94,ESE,115,0.0,2.0,17,0.00,,,0.00,Wunderground v.1.15,2013-05-12 05:47:00,
2013-05-11 22:52:00,83.7,34.2,29.94,ESE,108,1.0,2.0,17,0.00,,,0.00,Wunderground v.1.15,2013-05-12 05:52:00,
2013-05-11 22:57:00,83.9,32.9,29.94,ESE,117,1.0,2.0,16,0.00,,,0.00,Wunderground v.1.15,2013-05-12 05:57:00,
2013-05-11 23:02:00,84.1,33.0,29.94,SE,124,1.0,3.0,16,0.00,,,0.00,Wunderground v.1.15,2013-05-12 06:02:00,
2013-05-11 23:06:00,84.1,33.0,29.94,ESE,115,2.0,4.0,16,0.00,,,0.00,Wunderground v.1.15,2013-05-12 06:06:00,
2013-05-11 23:11:00,84.1,33.0,29.95,ESE,121,1.0,3.0,16,0.00,,,0.00,Wunderground v.1.15,2013-05-12 06:11:00,
2013-05-11 23:16:00,83.9,32.9,29.95,ESE,122,2.0,4.0,16,0.00,,,0.00,Wunderground v.1.15,2013-05-12 06:16:00,
2013-05-11 23:21:00,83.7,32.7,29.95,ESE,119,1.0,3.0,16,0.00,,,0.00,Wunderground v.1.15,2013-05-12 06:21:00,
2013-05-11 23:26:00,83.6,32.6,29.95,ESE,121,1.0,3.0,16,0.00,,,0.00,Wunderground v.1.15,2013-05-12 06:26:00,
2013-05-11 23:31:00,83.5,32.6,29.95,ESE,120,3.0,3.0,16,0.00,,,0.00,Wunderground v.1.15,2013-05-12 06:31:00,
2013-05-11 23:37:00,83.5,32.6,29.95,ESE,118,1.0,3.0,16,0.00,,,0.00,Wunderground v.1.15,2013-05-12 06:37:00,
2013-05-11 23:42:00,82.3,34.5,29.95,WNW,285,0.0,1.0,18,0.00,,,0.00,Wunderground v.1.15,2013-05-12 06:42:00,
2013-05-11 23:47:00,80.5,37.0,29.95,WNW,285,0.0,1.0,21,0.00,,,0.00,Wunderground v.1.15,2013-05-12 06:47:00,
2013-05-11 23:52:00,78.7,40.9,29.96,NW,319,0.0,1.0,26,0.00,,,0.00,Wunderground v.1.15,2013-05-12 06:52:00,
2013-05-11 23:57:00,77.5,41.8,29.96,WNW,296,0.0,1.0,28,0.00,,,0.00,Wunderground v.1.15,2013-05-12 06:57:00,